Volver al catálogo

STARLINK-36456

ActivoComunicacionesVLEO
NORAD 67357·PAYLOAD·🇺🇸 United States

Lanzado Jan 9, 2026 desde Cape Canaveral Space Force Station

Loading…

Próximos Pases (próximas 24 horas)

TLE

ActualizadoSource: CelesTrak SupGP

Época: Sep 15, 2026, 03:59 UTC

1 67357C 26003Z   26258.16645833 -.00041915  00000+0 -15184-2 0  2588
2 67357  42.9995 237.0137 0000859 268.5885  23.0407 15.27595196    12

Sigue STARLINK-36456 en tiempo real con AllMySat

Download on the App Store